Weather History for Ypsilanti, MI

Change the Weather History Date:

Friday, February 15, 2013

  Actual Average Record
Temperature  
Mean Temperature 32 °F -  
Max Temperature 37 °F 34 °F 57 °F (1976)
Min Temperature 24 °F 20 °F 1 °F (2007)
Degree Days  
Heating Degree Days 33    
Moisture  
Dew Point 16 °F    
Average Humidity 55    
Maximum Humidity 69    
Minimum Humidity 43    
Precipitation  
Precipitation 0.00 in - - ()
Sea Level Pressure  
Sea Level Pressure 30.02 in    
Wind  
Wind Speed 13 mph (WNW)    
Max Wind Speed 20 mph    
Max Gust Speed 24 mph    
Visibility 10 miles    
Events      
Averages and records for this station are not official NWS values.
T = Trace of Precipitation, MM = Missing Value Source: NWS Daily Summary

Daily Weather History Graph

Daily Weather History Graph

Search for Another Location

Airport:

Trip Planner

Search our weather history database for the weather conditions in past years. The results will help you decide how hot, cold, wet, or windy it might be!

Date:

Astronomy

Feb. 15, 2013 Rise Set
Actual Time 7:30 AM EST 6:07 PM EST
Civil Twilight 7:01 AM EST 6:35 PM EST
Nautical Twilight 6:28 AM EST 7:08 PM EST
Astronomical Twilight 5:56 AM EST 7:41 PM EST
Moon 9:58 AM EST (2/15) No Moon Set
Length of Visible Light 11h 34m
Length of Day
10h 36m
Waxing Crescent, 30% of the Moon is Illuminated
Feb 15
Waxing Crescent
Feb 17
First Quarter
Feb 25
Full
Mar 4
Last Quarter
Mar 11
New

Hourly Weather History & Observations

Time (EST) Temp. Windchill Dew Point Humidity Pressure Visibility Wind Dir Wind Speed Gust Speed Precip Events Conditions
12:53 AM 37.0 °F 28.5 °F 26.1 °F 65% 29.87 in 10.0 mi West 13.8 mph 24.2 mph N/A   Overcast
1:53 AM 35.1 °F 25.9 °F 24.1 °F 64% 29.88 in 10.0 mi West 13.8 mph - N/A   Overcast
2:02 AM 35.6 °F 27.1 °F 24.8 °F 65% 29.88 in 10.0 mi WNW 12.7 mph 23.0 mph N/A   Mostly Cloudy
2:53 AM 34.0 °F 24.2 °F 23.0 °F 64% 29.90 in 10.0 mi West 15.0 mph - N/A   Overcast
3:42 AM 33.8 °F 26.4 °F 23.0 °F 65% 29.90 in 10.0 mi NW 9.2 mph - N/A   Mostly Cloudy
3:53 AM 33.1 °F 25.5 °F 23.0 °F 66% 29.91 in 10.0 mi WNW 9.2 mph - N/A   Mostly Cloudy
4:07 AM 32.0 °F 22.1 °F 21.2 °F 64% 29.90 in 10.0 mi WNW 13.8 mph - N/A   Scattered Clouds
4:53 AM 30.0 °F 21.7 °F 21.0 °F 69% 29.94 in 10.0 mi WNW 9.2 mph - N/A   Clear
5:53 AM 28.9 °F 19.2 °F 19.9 °F 69% 29.97 in 10.0 mi WNW 11.5 mph - N/A   Partly Cloudy
6:53 AM 30.0 °F 21.1 °F 19.9 °F 66% 29.99 in 10.0 mi WNW 10.4 mph - N/A   Overcast
7:53 AM 28.9 °F 20.4 °F 17.1 °F 61% 30.02 in 10.0 mi WNW 9.2 mph - N/A   Overcast
8:53 AM 28.0 °F 16.5 °F 14.0 °F 56% 30.05 in 10.0 mi NW 15.0 mph - N/A   Overcast
9:53 AM 28.9 °F 17.7 °F 12.9 °F 51% 30.06 in 10.0 mi NW 15.0 mph 23.0 mph N/A   Overcast
10:53 AM 30.9 °F 20.7 °F 14.0 °F 50% 30.07 in 10.0 mi WNW 13.8 mph - N/A   Overcast
11:53 AM 33.1 °F 23.4 °F 15.1 °F 48% 30.07 in 10.0 mi NW 13.8 mph - N/A   Mostly Cloudy
12:53 PM 33.1 °F 21.5 °F 12.9 °F 43% 30.06 in 10.0 mi WNW 19.6 mph - N/A   Overcast
1:53 PM 32.0 °F 21.6 °F 12.9 °F 45% 30.06 in 10.0 mi WNW 15.0 mph - N/A   Overcast
2:53 PM 30.9 °F 21.2 °F 12.9 °F 47% 30.06 in 10.0 mi NW 12.7 mph - N/A   Overcast
3:53 PM 30.9 °F 22.2 °F 10.9 °F 43% 30.07 in 10.0 mi NW 10.4 mph - N/A   Overcast
4:53 PM 30.0 °F 21.1 °F 10.9 °F 45% 30.09 in 10.0 mi WNW 10.4 mph - N/A   Mostly Cloudy
5:53 PM 28.9 °F 21.1 °F 10.0 °F 45% 30.10 in 10.0 mi WNW 8.1 mph - N/A   Mostly Cloudy
6:53 PM 28.9 °F 19.2 °F 10.0 °F 45% 30.12 in 10.0 mi WNW 11.5 mph - N/A   Overcast
7:53 PM 28.0 °F 18.6 °F 10.9 °F 49% 30.12 in 10.0 mi West 10.4 mph - N/A   Overcast
8:53 PM 28.0 °F 19.3 °F 10.9 °F 49% 30.13 in 10.0 mi NW 9.2 mph - N/A   Overcast
9:53 PM 28.0 °F 17.5 °F 12.0 °F 51% 30.13 in 10.0 mi WNW 12.7 mph - N/A   Overcast
10:53 PM 27.0 °F 14.7 °F 10.9 °F 51% 30.13 in 10.0 mi West 16.1 mph - N/A   Overcast
11:53 PM 24.1 °F 16.0 °F 10.9 °F 57% 30.12 in 10.0 mi WNW 6.9 mph - N/A   Partly Cloudy